Погода в Петухово

Россия / Курганская область     55°03′54″N   67°53′14″E
В апреле 2022 года жителям России запретили посещать сайт meteo.paraplan.net по решению Генеральной прокуратуры. Аудитория сайта уменьшилась в 10 раз. Владельцы сайта не видят смысла в поддержке погодного сервера в таких условиях. Сайт будет закрыт в октябре.
темп.,
°C
ветер,
м/с
пор.,
м/с
влажн.,
%
обл.,
%
осадки,
мм/ч
давл.,
гПа
погр.,
м
6 октября, чт
чт623:00+8зюз4839100 0.0 1033141
02:00+7юз4837100 0.0 1032145
05:00+7юз41036100 0.0 1031179
08:00+8ююз3635100 0.0 1030126
11:00+13юз5825100 0.0 1029376
14:00+16юз5821100 0.0 1027664
17:00+13ю3731100 0.0 1025142
20:00+11ю41134100 0.0 1025185
7 октября, пт
пт723:00+10ююз41331100 0.0 1023219
02:00+9ююз41132100 0.0 1022176
05:00+7юз4833100 0.0 1021122
08:00+8ююз3733100 0.0 1019142
11:00+13юз6923100 0.0 1018473
14:00+14юз61032100 0.0 1017997
17:00+13юз5946100 0.0 1016357
20:00+10з2675100 0.0 1016168
8 октября, сб
сб823:00+10ююз3574100 0.0 1015158
02:00+9юз2377100 0.0 101454
05:00+9юз2378100 0.0 101379
08:00+9юз2577100 0.1 1012209
11:00+11юз4664100 0.3 1011779
14:00+13юз5652100 0.0 10101366
17:00+10з5772100 0.9 10101154
20:00+8зсз4584100 0.8 1011506
9 октября, вс
вс923:00+7зсз5785100 1.5 10121027
02:00+7сз71086100 1.4 10121067
05:00+7зсз51087100 1.8 10141011
08:00+7зсз71280100 0.1 1017823
11:00+9зсз710638 0.1 10191112
14:00+11зсз81052100 0.0 10201673
17:00+9з596327 0.0 1021596
20:00+7зюз41174100 0.0 1022242
10 октября, пн
пн1023:00+9з5127418 0.0 1023503
02:00+6зюз410865 0.0 1023226
05:00+6зюз410877 0.0 1023207
08:00+7зюз5127999 0.0 1024322
11:00+12зюз7115473 0.0 1024582
14:00+15зюз7104570 0.0 1023857
17:00+13юз5104821 0.0 1022316
20:00+10юз4125729 0.0 1023221